SCP
0 0 0 0 0 0 0 0 0 0 0 0 0 0 0 0 0 1 1 1 1 1 1 1 1 1 1 1 0 0 0 0 0 0 0 0 0 0 0 0 0 0 0 0
0 0 0 0 0 0 0 0 0 0 0 0 0 0 0 0 0 0 1 1 1 1 1 1 1 1 1 1 0 0 0 0 0 0 0 0 0 0 0 0 0 0 0 0
0 0 0 0 0 0 -0 0 0 0 0 0 0 0 0 0 0 0 0 1 1 1 1 1 1 1 1 1 1 0 0 0 0 0 0 0 0 0 0 0 0 0 0 0
0 0 0 0 0 0 -0 0 0 0 0 0 0 0 0 0 0 0 0 0 1 1 1 1 1 1 1 1 1 0 0 0 0 0 0 0 0 0 0 0 0 0 0 0
0 -0 0 0 0 -0 -0 0 0 0 0 0 0 0 0 0 0 0 0 0 0 1 1 1 1 1 1 1 1 1 0 0 0 0 0 0 0 0 0 0 0 0 0 0
0 0 -0 -0 0 0 0 0 0 0 0 0 0 0 0 0 0 0 0 0 0 1 1 1 1 1 1 1 1 1 1 0 0 0 0 0 0 0 0 0 0 0 0 0
0 0 0 0 0 0 0 0 0 0 0 0 0 0 0 0 0 0 0 0 0 0 1 1 1 1 1 1 1 1 1 1 0 0 0 0 0 0 0 0 0 0 0 0
0 0 0 0 0 0 0 0 0 0 0 0 0 0 0 0 0 0 0 0 0 0 1 1 1 1 1 1 1 1 1 1 1 1 0 0 0 0 0 0 0 0 0 0
0 0 0 0 0 0 0 0 0 0 0 0 0 0 0 0 0 0 0 0 0 0 1 1 1 1 1 1 1 1 1 1 1 1 1 1 0 0 0 0 0 0 0 0
0 0 0 0 0 0 0 0 0 0 0 0 0 0 0 0 0 0 0 0 0 0 0 1 1 1 1 1 1 1 1 1 1 1 1 1 0 0 0 0 0 0 0 0
0 0 0 0 0 0 0 0 0 0 0 0 0 0 0 0 0 0 0 0 0 0 0 1 1 1 1 1 1 1 1 1 1 1 1 0 0 0 0 0 0 0 0 0
0 0 0 0 0 0 0 0 0 0 0 0 0 0 0 0 0 0 0 0 0 0 0 0 1 1 1 1 1 1 1 1 1 1 1 0 0 0 0 0 0 0 0 0
0 0 0 0 0 0 0 0 0 0 0 0 0 0 0 0 0 0 0 0 0 0 0 0 0 0 0 1 1 1 1 1 1 1 1 0 0 0 0 0 0 0 0 0
0 0 0 0 0 0 0 0 0 0 0 0 0 0 0 0 0 0 0 0 0 0 0 0 0 0 0 0 0 1 1 1 1 1 0 0 0 0 0 0 0 0 0 0
0 0 0 0 0 0 0 0 0 0 0 0 0 0 0 0 0 0 0 0 0 0 0 0 0 0 0 0 0 0 0 0 0 0 0 0 0 0 0 0 0 0 0 0
0 0 0 0 0 0 0 0 0 0 0 0 0 0 0 0 0 0 0 0 0 0 0 0 0 0 0 0 0 0 0 0 0 0 0 0 0 0 0 0 0 0 0 0
0 0 0 0 0 0 0 0 0 0 0 0 0 0 0 0 0 0 0 0 0 0 0 0 0 0 0 0 0 0 0 0 0 0 0 0 0 0 0 0 0 0 0 0
0 0 0 0 0 0 0 0 0 0 0 0 0 0 0 0 0 0 0 0 0 0 0 0 0 0 0 0 0 0 0 0 0 0 0 0 0 0 0 0 0 0 0 0
0 0 0 0 0 0 0 0 0 0 0 0 0 0 0 0 0 0 0 0 0 0 0 0 0 0 0 0 0 0 0 0 0 0 0 0 0 0 0 0 0 0 0 0
0 0 0 0 0 0 0 0 0 0 0 0 0 0 0 0 0 0 0 0 0 0 0 0 0 0 0 0 0 0 0 0 0 0 0 0 0 0 0 0 0 0 0 0
0 0 0 0 0 0 0 0 0 0 0 0 0 0 0 0 0 0 0 0 0 0 0 0 0 0 0 0 0 0 0 0 0 0 0 0 0 0 0 0 0 0 0 0
0 0 0 0 0 0 0 0 0 0 0 0 0 0 0 0 0 0 0 0 0 0 0 0 0 0 0 0 0 0 0 0 0 0 0 0 0 0 0 0 0 0 0 0
0 0 0 0 0 0 0 0 0 0 0 0 0 0 0 0 0 0 0 0 0 0 0 0 0 0 0 0 0 0 0 0 0 0 0 0 0 0 0 0 0 0 0 0
0 0 0 0 0 0 0 0 0 0 0 0 0 0 0 0 0 0 0 0 0 0 0 0 0 0 0 0 0 0 0 0 0 0 0 0 0 0 0 0 0 0 0 0
0 0 0 0 0 0 0 0 0 0 0 0 0 0 0 0 0 0 0 0 0 0 0 0 0 0 0 0 0 0 0 0 0 0 0 0 0 0 0 0 0 0 0 0
0 0 0 0 0 0 0 0 0 0 0 0 0 0 0 0 0 0 0 0 0 0 0 0 0 0 0 0 0 0 0 0 0 0 0 0 0 0 0 0 0 0 0 0
Wind_Speed
5 5 6 8 8 5 4 2 2 4 3 1 2 4 4 5 7 8 9 10 12 13 10 9 10 11 10 10 11 12 11 10 9 7 6 5 5 4 4 4 5 5 5 6
4 5 7 6 6 4 2 2 3 4 2 1 2 3 3 5 10 11 12 12 13 10 9 11 12 12 12 13 12 12 12 11 10 8 6 4 4 3 3 3 4 5 6 6
7 5 8 7 5 6 5 5 4 3 3 3 0 4 3 2 4 6 8 10 10 13 14 14 14 14 12 13 13 12 12 11 10 8 5 4 3 3 3 3 3 4 6 6
5 5 6 7 6 7 5 6 6 3 1 3 1 2 6 2 3 6 8 9 10 11 11 12 13 13 13 13 12 11 12 11 10 10 9 10 7 6 6 4 4 4 5 6
7 6 7 7 7 9 7 3 3 3 3 0 1 2 8 1 4 8 8 9 10 11 12 13 14 14 12 12 12 11 11 11 10 10 11 10 7 5 4 4 5 4 4 5
5 4 7 8 6 7 5 4 6 5 5 1 3 4 7 4 6 6 7 8 8 9 11 12 11 9 9 10 11 11 12 12 11 11 11 10 10 8 8 7 6 5 3 3
2 3 4 4 4 3 5 6 3 3 2 5 3 3 9 7 6 6 7 8 8 8 9 10 10 10 10 12 12 12 12 12 12 12 11 11 11 11 10 9 8 6 4 4
5 5 5 5 7 6 6 10 8 6 5 4 1 6 8 5 4 4 4 4 5 6 7 9 11 11 11 12 12 12 13 12 13 13 11 10 10 8 7 7 7 7 6 6
7 6 4 4 5 10 7 5 7 7 3 1 4 6 8 2 3 2 2 3 5 6 8 9 10 11 11 12 12 13 13 11 12 12 11 10 9 8 8 7 7 6 5 5
8 4 3 2 4 2 8 9 7 6 6 3 3 4 5 5 5 4 3 3 4 5 6 7 8 10 10 10 10 11 11 11 11 11 10 10 9 9 8 7 8 7 7 6
5 5 1 2 5 7 5 5 6 5 5 7 3 7 7 6 5 5 5 3 4 5 6 7 7 8 8 9 10 10 11 10 10 10 9 9 9 8 8 7 8 8 7 8
4 6 2 4 3 4 6 8 9 7 4 5 5 8 4 5 4 4 4 2 2 3 3 3 5 6 7 8 9 10 11 11 10 10 9 9 9 9 9 9 9 8 8 8
5 7 3 3 3 1 3 4 5 6 6 5 5 7 3 1 1 2 3 2 1 2 2 2 3 4 6 7 8 9 10 10 9 9 9 8 9 9 9 9 8 8 8 8
5 5 7 9 7 4 3 4 5 7 5 5 7 7 5 3 3 2 1 2 2 3 3 2 3 3 4 6 7 8 8 9 9 9 9 9 9 9 9 8 8 9 9 9
5 4 3 4 4 4 4 5 7 6 8 9 8 7 8 6 5 3 2 2 3 3 3 3 3 3 4 5 5 6 7 8 8 9 9 9 8 8 8 8 8 8 8 9
4 3 2 0 1 3 2 4 6 5 6 5 4 6 5 1 2 2 3 3 3 3 3 3 3 3 4 5 5 6 7 7 8 8 8 7 7 8 8 9 8 8 8 7
1 3 4 1 1 3 2 4 5 4 4 7 7 7 2 2 3 3 3 4 3 3 3 4 5 5 5 6 6 6 7 7 7 7 7 7 8 8 9 9 8 9 8 7
3 3 3 3 3 4 6 2 3 4 2 2 3 3 3 4 3 2 2 3 2 2 2 3 4 4 4 4 4 5 5 6 7 6 6 7 8 8 8 8 9 8 7 7
5 5 4 4 4 2 3 1 3 4 1 2 4 3 3 5 4 3 1 1 2 2 2 2 2 3 4 5 5 5 5 5 6 6 7 7 7 8 8 9 9 7 7 7
3 3 5 4 4 5 6 2 1 4 2 2 4 5 5 5 3 2 1 0 1 1 1 1 2 3 4 4 5 6 6 6 6 6 6 6 7 8 9 9 8 6 7 7
3 2 3 4 3 5 3 2 2 4 7 2 3 4 4 3 3 2 1 2 2 2 2 2 3 3 4 4 6 6 5 6 6 5 5 5 6 7 7 6 6 6 7 6
4 4 4 4 4 6 2 2 4 5 1 3 4 4 4 4 4 4 4 3 3 4 4 3 3 3 3 4 5 5 5 4 3 4 4 5 5 6 5 6 6 6 7 7
2 3 4 4 4 2 1 1 2 2 4 3 4 4 6 6 5 4 4 4 3 3 3 3 3 3 2 2 3 3 2 2 3 4 4 4 4 4 4 5 6 5 5 5
1 1 1 0 1 1 2 2 3 3 4 5 6 6 7 7 6 6 5 4 4 4 4 3 4 4 3 2 1 1 1 3 4 4 4 4 4 4 3 3 4 4 4 5
2 1 1 1 1 2 4 4 4 5 7 8 8 7 7 8 7 6 5 5 5 5 4 4 4 4 3 3 3 2 1 3 3 3 3 3 4 4 4 3 2 3 3 4
2 3 3 3 3 2 1 2 4 7 7 7 9 9 8 7 7 7 6 5 5 5 5 5 5 4 4 4 4 3 2 2 3 3 2 2 3 3 3 4 3 4 3 3
Wind_Direction
152 129 189 195 183 181 167 172 251 263 276 271 246 260 247 183 180 183 185 188 194 200 188 178 178 179 179 184 181 180 181 177 170 170 171 169 175 171 168 177 177 174 169 165
111 215 202 173 175 186 208 252 270 296 338 198 261 281 261 194 195 193 192 197 202 191 178 180 181 182 184 185 185 182 184 181 177 179 174 167 153 157 164 169 173 175 172 169
168 212 174 165 169 182 212 207 223 254 343 7 70 321 304 255 219 202 202 205 203 194 191 187 186 190 187 186 184 187 187 181 178 170 153 138 119 114 145 167 177 182 175 173
201 223 165 171 189 173 231 215 203 213 129 297 60 280 284 258 248 221 215 210 210 203 194 191 190 191 193 189 185 186 183 179 176 169 169 167 171 175 180 172 174 173 175 173
212 191 178 193 200 176 209 199 185 183 161 287 350 177 280 303 246 238 226 217 215 205 195 192 193 193 191 183 185 183 178 180 178 178 178 176 176 171 154 152 161 171 174 176
209 200 188 200 199 183 170 85 58 53 84 227 234 176 270 239 225 239 229 222 216 204 198 196 190 181 178 177 181 179 179 183 182 182 180 180 175 167 161 168 171 173 170 175
221 240 221 178 156 157 130 104 53 18 36 242 244 192 247 244 229 223 224 224 213 202 194 189 180 180 181 183 184 182 182 184 183 183 184 183 180 176 177 177 178 175 175 184
174 243 221 187 169 166 167 144 156 178 201 255 255 228 252 250 250 244 239 230 207 192 187 187 186 185 184 188 186 182 185 188 186 186 186 183 181 180 182 181 178 182 187 188
169 232 255 205 169 144 140 169 161 129 145 158 271 279 298 264 272 259 247 220 205 194 187 188 187 187 186 186 188 185 184 185 183 185 181 181 181 179 183 181 178 180 182 179
151 199 258 212 108 99 144 145 112 127 148 205 273 268 253 262 260 258 241 228 222 200 189 187 186 188 187 186 186 181 181 185 181 180 182 184 183 182 181 176 182 184 182 173
138 153 291 91 158 165 116 113 118 125 151 155 210 263 230 224 229 230 238 231 216 204 197 192 190 186 179 176 179 181 181 179 177 180 181 179 181 180 177 183 188 185 178 172
147 131 204 250 244 173 153 159 146 149 190 169 166 259 265 228 235 224 234 237 210 186 183 181 180 170 168 174 176 177 181 181 180 176 175 180 178 178 181 188 190 185 179 177
139 124 121 338 344 67 128 152 150 129 124 151 166 255 293 286 259 231 211 215 186 140 135 136 149 161 169 172 175 176 178 180 174 170 171 175 177 181 187 190 185 181 178 175
126 125 161 187 206 184 175 168 152 129 144 182 208 234 277 271 252 252 207 185 157 139 136 135 142 160 167 167 171 174 175 174 170 169 172 179 183 185 186 183 180 180 178 177
109 144 184 204 205 177 188 189 175 172 176 178 212 215 238 232 222 211 165 136 131 137 143 151 155 161 162 161 167 174 171 169 169 170 178 186 184 181 178 179 180 179 180 184
73 130 142 215 191 170 190 200 187 184 176 186 183 235 243 235 127 118 135 142 152 172 173 169 163 159 166 169 171 169 170 168 168 176 185 181 177 178 180 180 176 175 180 180
58 115 120 201 279 97 226 216 189 180 182 170 193 217 168 127 139 160 166 159 173 190 185 177 177 181 184 181 175 176 172 166 170 178 180 178 178 182 183 179 175 181 183 181
145 116 119 127 95 192 241 254 159 144 168 175 176 179 167 166 154 137 150 165 172 184 191 192 180 177 176 170 166 164 158 162 169 174 177 178 178 182 179 177 183 185 182 184
160 139 122 126 149 239 277 200 149 142 219 187 163 156 139 133 90 33 6 156 184 202 207 207 180 167 163 161 155 148 153 161 169 178 183 184 182 183 182 187 189 186 184 189
104 119 124 131 142 206 231 239 181 115 247 228 164 163 155 130 122 242 281 74 41 33 78 117 126 134 147 153 147 150 162 170 185 191 190 185 183 185 190 194 191 184 186 192
92 92 138 146 169 243 257 293 124 166 225 188 152 152 141 145 169 180 91 60 49 42 39 76 107 126 146 149 150 160 171 192 199 190 182 183 186 189 191 189 185 180 182 183
155 147 166 145 164 233 300 89 176 211 158 116 118 115 115 115 101 84 77 66 59 54 46 64 86 92 114 140 152 164 192 198 175 170 176 183 183 189 189 180 181 179 181 185
168 183 180 183 201 258 328 236 266 173 136 134 122 114 117 107 97 87 76 66 58 62 56 57 80 83 80 119 147 172 197 162 159 168 179 180 174 179 171 173 176 172 178 188
285 135 146 168 287 349 18 34 44 69 96 104 110 108 106 106 100 87 75 64 58 54 55 56 74 78 64 56 90 141 146 153 160 176 181 172 169 167 157 161 170 175 185 192
245 161 122 138 197 59 39 46 65 80 87 85 84 89 97 101 95 92 82 67 58 52 46 54 66 69 57 48 50 47 92 140 151 162 166 166 165 159 154 151 155 179 190 196
228 183 167 202 212 159 139 41 76 91 89 93 95 84 74 80 87 88 78 64 59 56 51 54 54 55 47 44 39 30 43 104 132 131 134 141 139 145 148 144 120 71 86 106